Wind_Speed
62 62 62 62 62 62 62 62 62 61 61 61 61 60 60 60 59 59 59 58 58 57 56 56 55 55 55 55 54 54 54 54 53 53 52 52 52 51 51 50 50 49 49 48 47 46 46 46 45 45 45 45 45 45 44 44 44 44 44 44 44 44 44 44 44 44 44 43 43 43 42 42 42 41 41 41 40 40 39 39 38 37 37 36 36 36
61 61 61 61 61 61 61 61 61 60 60 60 60 59 59 58 58 58 57 57 57 56 56 55 55 54 54 54 54 54 54 54 53 53 52 52 52 51 51 50 50 49 49 48 47 47 46 46 46 45 45 45 45 45 44 44 44 44 44 44 44 44 44 44 44 44 44 43 43 43 42 42 42 42 42 41 41 41 40 40 39 39 38 38 38 37
61 61 61 61 61 60 61 60 60 59 59 59 58 58 57 57 57 56 56 56 56 55 55 54 54 54 54 54 54 54 54 53 53 53 52 52 52 51 51 50 50 49 49 48 47 47 46 46 46 46 45 45 45 45 45 44 44 44 44 44 44 44 44 44 44 44 44 43 43 43 43 43 43 42 42 42 42 41 41 41 40 40 40 40 40 39
61 61 61 61 61 60 60 60 59 59 58 58 57 57 56 56 56 56 55 55 55 54 54 54 54 53 53 53 53 53 53 53 53 53 52 52 51 51 51 50 50 49 49 48 47 47 46 46 46 46 46 45 45 45 45 44 44 44 44 44 44 44 44 44 44 44 43 43 43 43 43 43 43 43 43 43 42 42 42 42 41 41 41 41 41 41
60 60 61 61 60 60 60 60 59 59 58 58 57 57 56 56 55 55 55 54 54 54 53 53 53 53 53 53 53 53 53 53 53 52 52 52 51 51 50 50 49 49 48 48 47 47 46 46 46 46 46 45 45 45 45 44 44 44 44 44 44 44 44 43 43 43 43 43 43 43 43 43 44 43 43 43 43 43 43 42 42 42 43 43 43 43
57 58 59 59 59 60 60 60 60 59 58 58 57 57 56 56 55 55 54 54 54 53 53 53 53 53 52 52 52 52 52 52 52 52 52 51 51 50 50 49 49 49 48 48 47 47 46 46 46 46 46 46 45 45 45 44 44 44 44 44 43 43 43 43 43 43 43 43 43 44 44 44 44 44 44 44 44 43 43 43 43 43 44 44 44 45
55 55 56 57 58 58 59 59 59 59 58 58 58 57 57 56 55 55 55 54 54 54 53 53 53 52 52 52 52 52 52 52 52 52 51 51 50 50 49 49 49 48 48 48 47 47 47 46 46 46 46 46 45 45 45 44 44 44 44 43 43 43 43 43 43 43 43 44 44 44 44 44 44 44 44 44 44 44 44 44 44 44 45 45 45 46
52 53 54 54 55 56 57 58 58 58 58 58 58 57 57 56 56 55 55 55 54 54 53 53 53 52 52 52 51 51 51 51 51 51 51 50 50 49 49 48 48 48 48 47 47 47 47 46 46 46 46 46 45 45 45 44 44 44 44 43 43 43 43 43 43 43 44 44 44 44 45 45 45 45 45 45 45 44 44 44 45 45 45 46 46 47
51 52 52 53 53 54 55 56 56 57 57 57 57 57 56 56 56 55 55 55 54 54 54 53 53 52 52 51 51 51 51 50 50 50 50 49 49 49 48 48 48 48 47 47 47 47 47 46 46 46 46 46 45 45 45 45 44 44 44 43 43 43 43 43 43 44 44 44 44 45 45 45 45 45 45 45 45 45 45 45 45 45 46 46 47 47
51 51 52 52 52 53 53 54 55 55 55 56 56 56 56 56 55 55 55 55 54 54 54 53 53 53 52 51 51 50 50 50 50 50 49 49 49 48 48 48 47 47 47 47 47 47 47 46 46 46 46 46 45 45 45 45 44 44 44 43 43 43 43 43 44 44 44 44 45 45 45 45 45 45 45 45 45 45 45 45 45 46 46 47 47 48
52 52 52 52 52 52 52 53 53 54 54 54 55 55 55 55 55 54 54 54 54 54 54 53 53 53 52 51 51 50 50 50 50 49 49 49 48 48 48 47 47 47 47 47 47 47 47 46 46 46 46 46 45 45 45 45 44 44 44 44 43 43 43 44 44 44 44 45 45 45 45 46 46 46 46 46 46 46 46 46 46 46 46 47 47 48
52 52 52 52 52 52 52 53 53 53 53 53 54 54 54 54 54 54 54 54 53 53 53 53 53 53 53 52 51 50 50 50 49 49 49 49 48 48 47 47 47 47 47 47 47 47 47 46 46 46 46 46 46 45 45 45 45 44 44 44 44 43 44 44 44 44 44 45 45 45 46 46 46 46 46 46 46 46 46 46 46 46 47 47 47 48
53 53 53 53 53 53 53 53 53 53 53 53 53 53 53 53 53 53 53 53 53 53 52 53 53 53 53 52 51 51 50 50 49 49 49 48 48 47 47 47 47 46 46 47 47 47 47 46 46 46 46 46 46 46 45 45 45 45 44 44 44 44 44 44 44 44 45 45 45 45 46 46 46 46 46 46 46 46 46 46 46 47 47 47 48 48
53 53 54 54 54 54 54 53 53 53 53 52 52 53 53 53 52 52 52 52 52 52 52 52 52 53 53 52 52 51 51 50 50 49 49 48 48 47 47 47 46 46 46 46 46 47 46 46 46 46 46 46 46 46 46 45 45 45 45 44 44 44 44 44 44 44 45 45 45 46 46 46 46 46 46 46 47 47 47 47 47 47 47 47 48 48
51 52 52 53 54 54 54 54 54 54 53 53 52 52 52 52 52 52 52 52 52 51 51 51 52 52 52 52 52 52 51 51 50 49 48 48 47 47 46 46 46 46 46 46 46 46 46 46 46 46 46 46 46 46 46 46 46 45 45 45 45 44 44 44 44 45 45 45 45 46 46 46 46 46 47 47 47 47 47 47 47 47 47 47 48 48
51 50 51 51 52 53 54 54 54 54 54 53 53 53 52 52 52 52 52 51 51 51 51 51 51 52 52 52 52 52 51 51 50 49 48 48 47 47 46 46 46 46 46 46 46 46 46 46 46 46 46 46 46 46 46 46 46 46 45 45 45 45 45 45 45 45 45 45 46 46 46 46 47 47 47 47 47 47 47 47 47 47 48 48 48 48
52 51 51 51 51 52 53 54 54 55 54 54 54 53 53 53 52 52 52 51 51 51 50 50 51 51 52 52 52 52 51 51 50 49 48 48 47 46 46 46 46 46 46 46 46 46 46 46 46 46 46 46 46 46 46 46 46 46 46 45 45 45 45 45 45 45 45 46 46 46 46 47 47 47 47 47 47 48 48 48 48 48 48 48 48 48
56 55 54 53 53 53 53 53 54 54 55 55 55 54 54 53 53 52 52 51 51 50 50 50 50 51 51 52 52 52 51 51 50 49 48 47 47 46 46 46 46 46 45 45 46 46 46 46 46 46 46 46 46 46 46 46 46 46 46 46 45 45 45 45 45 45 46 46 46 46 47 47 47 47 47 48 48 48 48 48 48 48 48 48 48 48
61 60 59 58 57 55 55 54 54 55 55 55 55 55 54 54 53 53 52 51 51 50 50 50 50 50 51 52 52 52 51 51 50 49 48 47 47 47 46 46 46 45 45 45 45 45 45 45 46 46 46 46 46 46 46 46 46 46 46 46 46 45 45 45 46 46 46 46 46 47 47 47 47 47 48 48 48 48 48 48 48 48 48 48 49 49
65 64 63 62 61 60 58 57 56 56 56 56 56 56 55 54 54 53 52 52 51 50 50 50 50 50 50 51 52 52 51 51 50 49 48 48 47 47 46 46 46 46 45 45 45 45 45 45 46 46 46 46 46 47 47 46 46 46 46 46 46 46 46 46 46 46 46 46 47 47 47 47 47 48 48 48 48 48 48 48 48 49 49 49 49 49
67 67 66 66 65 63 62 61 60 59 58 58 58 57 56 55 54 54 53 52 51 51 50 50 49 49 50 50 51 51 51 51 50 49 49 48 48 48 47 46 46 46 46 45 45 45 45 45 46 46 46 47 47 47 47 47 47 46 46 46 46 46 46 46 46 46 46 47 47 47 47 47 48 48 48 48 48 49 49 49 49 49 49 49 49 50
65 66 67 67 66 66 65 64 63 62 61 60 59 58 57 56 55 54 53 52 51 51 50 50 49 49 49 50 50 51 51 51 50 50 49 48 48 48 47 47 46 46 46 45 45 45 45 46 46 47 47 47 47 47 47 47 47 47 46 46 46 46 46 46 46 46 47 47 47 47 48 48 48 48 48 49 49 49 49 49 49 49 50 50 50 50
63 63 64 65 66 66 66 65 65 64 63 61 60 59 58 57 56 54 53 53 52 51 51 50 49 49 49 49 50 50 51 51 50 50 49 49 49 48 48 47 46 46 46 46 46 46 46 47 47 47 48 48 48 48 47 47 47 46 46 46 46 46 46 46 46 47 47 47 47 48 48 48 48 48 49 49 49 49 49 50 50 50 50 50 50 50
60 61 61 62 63 64 64 65 65 64 63 62 60 59 58 57 56 55 54 53 53 52 51 50 50 49 49 49 50 50 50 50 50 50 49 49 49 48 48 47 47 47 46 46 46 47 47 48 48 48 49 49 48 48 47 47 47 46 46 46 46 46 46 47 47 47 47 47 48 48 48 48 49 49 49 49 49 50 50 50 50 50 50 50 51 51
59 59 59 59 60 61 62 62 62 62 62 61 60 59 58 57 57 56 55 54 53 53 52 51 50 50 50 50 50 50 50 50 50 50 50 49 49 48 48 48 48 48 47 47 47 48 48 49 49 49 49 49 48 48 47 47 46 46 46 46 46 47 47 47 47 47 47 48 48 48 48 49 49 49 49 50 50 50 50 50 50 51 51 51 51 51
58 58 58 58 59 59 59 60 60 60 60 60 59 59 58 57 56 56 55 55 54 53 52 52 51 51 51 50 51 51 51 51 51 50 50 50 49 49 49 49 49 49 48 48 49 49 49 50 50 50 49 49 48 48 47 47 46 46 46 47 47 47 47 47 47 47 48 48 48 48 49 49 49 49 50 50 50 50 50 51 51 51 51 51 52 52
58 58 58 58 58 58 58 59 59 59 59 58 58 58 57 57 56 55 55 55 54 53 53 52 52 52 51 51 51 52 52 52 52 51 51 50 50 50 50 50 50 50 50 50 50 50 50 50 50 50 49 48 48 47 47 47 47 47 47 47 47 47 47 47 47 48 48 48 48 48 49 49 49 50 50 50 50 51 51 51 51 51 52 52 52 52
58 57 57 57 57 57 58 58 58 58 58 58 58 57 57 56 56 55 55 55 54 54 53 53 53 52 52 52 52 52 53 53 53 52 52 52 51 51 51 51 51 51 51 51 51 51 51 50 50 49 49 48 48 47 47 47 47 47 47 47 47 47 48 48 48 48 48 48 48 49 49 49 50 50 50 50 51 51 51 52 52 52 52 52 53 53
57 57 56 56 56 57 57 57 57 57 57 57 57 57 57 56 56 55 55 55 54 54 53 53 53 53 53 53 53 53 53 54 54 53 53 53 53 53 53 53 53 53 53 52 52 52 51 50 49 49 48 48 47 47 48 48 48 48 48 48 48 48 48 48 48 48 48 48 48 49 49 49 50 50 50 51 51 51 52 52 52 53 53 53 53 53
57 57 56 56 56 56 56 56 56 56 57 57 57 57 57 56 56 55 55 55 54 54 53 53 53 53 53 53 53 53 54 54 54 54 54 54 54 54 54 54 54 54 54 53 53 52 51 50 49 48 48 47 47 48 48 48 48 48 48 48 48 48 48 48 48 48 48 48 49 49 49 50 50 50 51 51 51 52 52 53 53 53 53 53 54 54
57 56 56 56 55 55 55 55 56 56 56 56 57 57 57 56 55 55 55 54 54 54 53 53 53 53 53 53 53 53 54 54 55 55 55 54 55 55 55 55 55 55 55 54 53 51 50 48 48 47 47 47 48 48 48 48 49 49 48 48 48 48 48 48 48 48 48 48 49 49 49 50 50 51 51 51 52 52 53 53 53 54 54 54 54 54
57 56 56 55 55 55 55 55 55 55 55 56 57 57 57 56 55 55 54 54 54 54 53 53 53 53 53 53 53 54 54 54 55 55 55 55 55 55 55 55 55 55 54 53 52 50 48 47 46 46 47 47 48 48 48 49 49 49 48 48 48 48 48 48 48 48 48 48 49 49 50 50 50 51 51 52 52 53 53 54 54 54 54 55 55 55
56 56 55 55 55 55 54 54 54 55 55 56 56 57 57 57 56 55 54 54 54 53 53 53 53 53 53 53 53 54 54 55 55 55 55 55 55 55 55 55 55 54 53 52 51 49 48 46 45 45 46 47 48 48 49 49 49 49 48 48 48 48 48 48 48 48 48 49 49 50 50 50 51 51 51 52 52 53 53 54 54 55 55 55 55 55
56 55 55 54 54 54 54 54 54 54 55 55 56 57 57 57 56 55 54 53 53 53 53 53 53 53 53 53 53 54 54 55 55 56 55 55 55 55 55 54 54 53 52 51 49 48 47 46 45 45 46 47 48 48 49 49 49 49 48 48 48 48 48 48 48 49 49 49 49 50 50 51 51 51 52 52 53 53 54 54 55 55 55 56 56 56
55 54 54 54 53 54 54 54 54 54 54 55 55 56 57 56 56 55 54 53 53 53 53 53 53 52 53 53 53 54 54 55 55 55 55 55 55 54 54 53 53 52 51 49 48 47 46 45 45 45 45 46 47 48 49 49 49 49 49 49 49 49 49 49 49 49 49 49 50 50 51 51 51 52 52 52 53 53 54 54 55 55 56 57 57 57
55 54 54 53 53 53 53 53 54 54 54 54 55 55 56 56 56 55 54 54 53 53 53 52 52 52 53 53 53 53 54 55 55 55 55 55 55 54 53 52 51 51 50 49 48 47 46 45 45 45 45 46 47 48 48 49 49 49 49 49 49 49 49 49 49 49 49 50 50 50 51 51 51 52 52 52 53 53 54 54 55 56 56 57 58 58
55 54 54 53 53 52 53 53 53 53 54 54 54 55 56 56 56 55 55 54 53 53 52 52 52 52 52 53 53 54 54 55 55 55 55 55 54 53 52 52 51 50 49 49 48 47 46 46 45 45 45 46 47 47 48 48 49 49 49 49 49 49 49 49 49 49 50 50 50 51 51 51 51 52 52 52 53 53 54 54 55 56 57 58 58 59
55 54 54 53 53 52 52 52 53 53 53 53 54 54 55 55 56 55 55 54 53 53 52 52 52 52 52 53 53 54 54 54 55 55 55 54 54 53 52 51 50 49 49 49 48 47 47 46 46 46 46 46 47 47 48 48 48 49 49 49 49 49 49 49 49 50 50 50 50 51 51 51 51 52 52 52 53 53 54 54 55 56 57 58 59 60
54 54 53 53 52 52 52 52 52 52 53 53 53 54 54 55 55 55 55 54 54 53 52 52 52 52 52 53 53 53 54 54 54 54 54 54 53 53 52 51 50 49 49 49 48 48 47 47 46 46 46 46 47 47 47 48 48 49 49 49 49 49 49 50 50 50 50 50 51 51 51 51 51 52 52 52 53 53 54 55 55 56 57 58 59 60
54 53 53 52 52 52 52 52 52 52 52 53 53 53 54 54 55 55 55 54 54 53 53 52 52 52 52 52 53 53 54 54 54 54 54 54 53 52 51 50 50 49 49 49 48 48 48 47 47 47 47 47 47 47 47 48 49 49 49 49 49 49 49 50 50 50 51 51 51 51 51 51 52 52 52 52 53 53 54 55 56 57 58 59 60 61
53 53 52 52 51 51 51 51 51 52 52 52 53 53 53 54 54 54 55 54 54 53 53 52 52 52 52 52 53 53 53 54 54 54 54 53 53 52 51 50 50 49 49 49 49 49 48 48 48 47 47 47 47 47 47 48 49 49 49 49 49 49 49 50 50 51 51 51 51 51 51 51 52 52 52 53 53 54 55 56 56 57 59 60 61 62
53 53 52 51 51 51 50 50 51 51 51 52 52 52 53 53 54 54 54 54 54 53 53 53 52 52 52 52 52 53 53 53 54 54 53 53 52 52 51 50 50 50 49 49 49 49 49 49 48 48 48 48 48 48 48 48 49 49 49 49 49 49 49 50 50 51 51 51 51 51 52 52 52 52 52 53 53 54 55 56 57 58 59 61 62 63
53 52 52 51 51 50 50 50 50 50 50 51 51 52 52 52 53 53 54 54 53 53 53 53 52 52 52 52 52 53 53 53 53 53 53 53 52 52 51 50 50 50 50 49 49 49 49 49 49 49 49 48 48 48 48 49 49 49 50 50 50 49 49 50 50 51 51 51 51 51 52 52 52 52 52 53 54 55 56 57 58 59 60 62 63 64
53 52 51 51 50 50 49 49 49 49 50 50 50 51 51 52 52 52 53 53 53 53 53 53 52 52 52 52 52 52 52 53 53 53 53 52 52 52 51 50 50 50 50 50 50 50 49 49 49 49 49 49 49 49 49 49 49 50 50 50 50 50 50 50 50 51 51 51 51 51 52 52 52 53 53 54 54 55 56 57 59 60 61 63 64 64
52 51 51 50 50 49 49 49 49 49 49 49 49 50 50 51 51 52 52 52 53 53 53 53 52 52 52 52 52 52 52 52 52 52 52 52 52 52 51 51 50 50 50 50 50 50 50 49 49 49 49 49 49 49 49 49 50 50 50 50 50 50 50 50 50 51 51 51 51 52 52 52 53 53 54 54 55 56 57 58 59 61 62 63 64 65
52 51 51 50 50 49 49 48 48 48 48 48 48 49 49 50 50 51 51 52 52 52 52 52 52 52 52 52 52 52 52 52 52 52 52 52 52 52 51 51 51 51 50 50 50 50 50 50 50 50 50 49 50 50 50 50 50 50 50 50 50 50 50 50 50 51 51 51 51 52 52 53 53 54 54 55 55 56 58 59 60 61 62 63 64 64
51 51 50 50 49 49 48 48 48 48 48 48 48 48 48 49 49 50 50 51 51 52 52 52 52 52 52 52 51 51 51 51 51 51 52 52 52 52 51 51 51 51 51 51 51 50 50 50 50 50 50 50 50 50 50 50 50 50 50 50 50 50 50 50 51 51 51 52 52 52 53 53 54 55 55 56 56 57 58 60 61 62 63 63 64 64
51 51 50 49 49 48 48 48 47 47 47 47 47 47 48 48 48 49 50 50 51 51 51 52 52 52 52 51 51 51 51 51 51 51 51 51 52 52 52 51 51 51 51 51 51 51 50 50 50 50 50 50 50 50 50 50 50 50 50 50 50 50 50 51 51 51 52 52 52 53 53 54 55 55 56 56 57 58 59 60 61 62 63 63 63 62
51 50 50 49 48 48 47 47 47 47 46 46 46 47 47 47 48 48 49 49 50 51 51 51 51 51 51 51 51 51 50 50 50 51 51 51 51 51 51 51 51 51 51 51 51 51 50 50 50 50 50 50 50 50 50 50 50 50 51 51 51 51 51 51 51 52 52 53 53 54 54 55 56 57 57 58 58 59 59 60 61 62 62 62 62 61
50 50 49 49 48 47 47 46 46 46 45 45 46 46 46 47 47 48 48 49 49 50 50 51 51 51 51 51 51 50 50 50 50 50 50 51 51 51 51 51 51 51 51 51 51 51 50 50 50 50 50 50 50 50 50 50 50 50 51 51 51 51 51 51 51 52 53 53 54 54 55 56 57 58 58 59 59 60 60 61 61 61 61 61 60 59
50 49 49 48 47 46 46 45 45 44 44 44 45 45 45 46 46 47 47 48 49 49 50 50 50 51 51 50 50 50 50 50 50 50 50 50 51 51 51 51 51 51 51 51 51 50 50 50 50 50 50 50 51 50 50 50 50 50 51 51 51 51 52 52 52 53 53 54 55 55 56 57 58 58 59 60 61 61 61 61 60 60 60 59 58 57
Wind_Direction
276 276 276 276 276 276 275 275 275 275 275 275 275 275 275 274 274 273 273 272 272 271 271 270 269 269 268 268 268 267 267 266 266 265 265 264 264 263 263 263 262 262 262 262 262 262 262 262 262 262 262 263 263 264 264 264 264 264 264 264 263 263 263 263 264 264 264 265 266 266 267 269 270 271 272 273 273 273 272 270 268 266 265 265 266 268
275 275 276 275 275 275 275 275 275 275 275 275 275 274 274 274 273 273 272 272 271 270 270 269 268 268 267 267 267 266 266 265 265 264 263 263 263 262 262 262 262 261 261 261 261 261 261 261 261 261 262 262 263 263 264 264 264 264 264 263 263 263 263 263 263 264 264 265 266 267 268 269 270 271 272 273 273 273 272 270 268 266 265 265 266 268
275 275 275 275 275 275 275 275 275 275 274 274 274 274 274 273 273 272 272 271 271 270 269 268 268 267 266 266 266 265 265 264 264 263 262 262 262 261 261 261 261 261 261 261 260 260 260 260 260 261 261 262 262 263 263 263 264 264 263 263 263 263 263 263 264 264 265 265 266 268 269 270 271 272 273 273 273 273 272 271 269 267 266 266 267 268
276 276 275 275 275 275 275 275 274 274 274 274 273 273 273 272 272 272 271 271 270 269 268 268 267 266 266 265 265 264 264 263 263 262 262 261 261 260 260 260 260 260 260 260 260 260 260 260 260 260 261 261 262 262 263 263 263 263 263 263 263 263 263 263 264 264 265 266 267 268 269 270 271 272 273 273 273 273 272 271 269 268 267 266 267 268
276 276 276 276 275 275 275 274 274 274 273 273 273 272 272 272 271 271 270 270 269 269 268 267 266 266 265 265 264 264 263 263 262 261 261 260 260 260 260 260 260 259 259 259 259 259 259 259 259 260 260 261 261 262 262 263 263 263 263 263 263 263 263 264 264 265 266 266 267 268 269 270 271 272 273 273 273 273 273 271 270 269 267 267 267 268
278 277 277 276 276 275 275 274 274 274 273 273 273 272 272 271 271 270 270 270 269 268 268 267 266 265 265 264 264 263 263 262 262 261 260 260 260 259 259 259 259 259 259 259 259 259 259 259 259 259 260 260 261 262 262 262 263 263 263 263 263 263 263 264 264 265 266 267 268 269 269 270 271 272 273 273 273 273 273 272 270 269 268 267 267 268
279 278 278 277 277 276 275 275 274 274 274 273 273 272 272 271 271 270 270 270 269 268 268 267 266 265 265 264 263 263 262 262 261 261 260 260 259 259 259 259 259 259 259 259 259 258 258 258 259 259 259 260 261 261 262 262 262 262 262 263 263 263 264 264 265 265 266 267 268 269 269 270 271 272 272 273 273 273 273 272 271 270 269 268 268 268
280 280 279 279 278 277 277 276 275 274 274 273 273 273 272 272 271 271 270 270 269 269 268 267 266 266 265 264 263 262 262 261 261 260 260 259 259 259 259 259 259 259 259 259 259 258 258 258 258 259 259 260 261 261 262 262 262 262 262 263 263 263 264 264 265 265 266 267 268 268 269 270 271 271 272 273 273 273 273 272 271 270 269 268 268 268
281 280 280 280 279 278 278 277 276 275 275 274 274 273 273 272 272 271 271 271 270 270 269 268 267 266 265 264 263 262 261 261 260 260 259 259 259 259 259 259 259 259 259 259 259 258 258 258 258 259 259 260 260 261 261 262 262 262 262 263 263 263 264 264 265 265 266 267 268 268 269 270 271 271 272 272 273 273 273 272 271 270 270 269 268 268
281 281 280 280 280 279 279 278 277 276 275 275 274 273 273 273 272 272 272 272 271 271 270 269 268 267 266 264 263 262 261 261 260 260 259 259 259 259 259 259 259 259 259 259 259 259 258 258 258 259 259 260 260 261 261 262 262 262 262 263 263 263 264 264 265 265 266 267 267 268 269 270 270 271 272 272 272 272 272 272 272 271 270 269 269 269
281 281 281 280 280 279 279 278 278 277 276 275 275 274 273 273 273 273 273 272 272 272 271 270 269 268 266 265 263 262 261 260 260 259 259 259 259 259 259 259 259 259 259 259 259 259 259 258 259 259 259 260 260 261 261 262 262 262 262 263 263 263 264 264 265 265 266 267 267 268 269 270 270 271 271 272 272 272 272 272 272 271 271 270 270 270
281 281 281 280 280 280 279 279 278 277 277 276 275 275 274 273 273 273 273 273 273 272 272 271 270 268 267 266 264 263 261 261 260 259 259 259 259 259 259 259 259 259 259 259 259 259 259 259 259 259 259 260 260 261 261 262 262 262 262 263 263 263 264 264 265 265 266 267 268 268 269 270 270 271 271 272 272 272 272 272 272 272 271 271 270 270
282 281 281 280 280 280 279 279 278 278 277 277 276 275 274 273 273 272 272 273 273 273 272 271 270 269 268 266 265 264 262 261 260 260 259 259 259 259 259 259 259 260 260 260 260 260 259 259 259 259 260 260 261 261 261 262 262 262 262 263 263 263 264 264 265 266 266 267 268 268 269 270 270 271 271 272 272 272 272 272 272 272 272 271 271 271
282 282 281 281 280 280 279 279 278 278 277 277 276 275 274 274 273 272 272 272 272 272 272 271 270 269 268 267 266 265 263 262 261 260 259 259 259 259 259 259 260 260 260 260 260 260 260 260 260 260 260 261 261 261 262 262 262 262 263 263 263 264 264 265 265 266 267 267 268 268 269 270 270 271 271 272 272 272 272 272 273 272 272 272 272 272
283 283 282 281 281 280 280 279 278 278 277 277 276 275 274 274 273 272 272 272 272 272 272 271 270 269 268 267 266 265 264 263 262 261 260 259 259 259 259 260 260 260 260 260 260 260 260 260 260 260 261 261 261 261 262 262 262 262 263 263 263 264 264 265 265 266 267 267 268 269 269 270 270 271 271 272 272 272 273 273 273 273 273 273 273 273
283 282 282 282 282 281 280 280 279 278 277 277 276 275 274 274 273 272 272 272 272 272 271 271 270 269 268 267 266 266 265 264 263 262 261 260 259 259 259 260 260 260 260 260 260 260 260 260 260 261 261 261 261 262 262 262 262 262 263 263 264 264 265 265 266 266 267 268 268 269 269 270 270 271 271 272 272 272 273 273 273 274 274 274 274 274
281 281 282 282 282 282 281 281 280 279 278 277 276 275 274 273 273 272 271 271 271 271 271 270 270 269 268 267 266 266 265 265 264 263 262 261 260 260 260 260 260 260 260 260 260 260 260 260 261 261 261 261 261 262 262 262 262 263 263 263 264 264 265 266 266 267 267 268 268 269 270 270 271 271 272 272 273 273 273 274 274 274 274 275 275 275
280 280 280 281 281 281 281 281 281 280 278 277 275 274 273 273 272 271 271 271 271 271 270 270 269 269 268 267 266 266 266 265 264 263 262 261 261 261 260 260 260 260 260 260 260 260 260 261 261 261 261 261 262 262 262 262 262 263 263 264 264 265 265 266 267 267 268 268 269 269 270 271 271 272 272 273 273 274 274 275 275 275 275 276 276 276
278 278 279 279 280 280 281 281 281 280 279 277 276 274 273 272 271 271 270 270 270 270 270 270 269 269 268 267 267 266 266 265 264 263 262 262 261 261 261 260 260 260 260 260 260 260 260 261 261 261 261 262 262 262 262 263 263 263 264 264 265 265 266 267 267 268 268 269 270 270 271 271 272 272 273 274 274 275 275 275 276 276 276 277 277 277
277 277 277 278 278 279 280 280 281 281 280 278 276 274 272 271 270 270 269 269 269 269 269 269 269 268 267 267 266 266 265 265 264 263 262 262 262 261 261 261 260 260 260 260 260 261 261 261 261 261 262 262 262 262 263 263 263 264 264 265 265 266 266 267 268 268 269 270 270 271 271 272 273 273 274 275 275 276 276 276 277 277 277 277 278 278
277 276 276 276 276 277 278 279 279 280 279 278 276 274 272 271 269 269 268 268 268 268 267 268 268 268 267 266 266 265 265 264 263 263 262 262 262 261 261 261 261 261 261 261 261 261 261 261 261 262 262 262 262 262 263 263 263 264 264 265 266 266 267 268 268 269 270 270 271 272 272 273 274 275 275 276 276 277 277 277 277 278 278 278 279 279
279 277 275 275 275 275 276 277 277 278 278 277 275 273 272 270 269 268 267 267 267 267 266 266 267 266 266 266 265 264 264 263 262 262 262 261 261 261 261 261 261 261 261 261 261 261 261 261 262 262 262 262 262 262 263 263 263 264 265 265 266 267 268 268 269 270 271 271 272 273 273 274 275 275 276 276 277 277 277 278 278 278 279 279 279 280
281 278 276 275 274 274 274 275 275 276 276 275 274 272 271 270 268 268 267 266 266 265 265 265 265 265 265 265 264 264 263 262 262 261 261 260 260 260 261 261 261 261 261 261 261 261 261 262 262 262 262 262 262 262 262 263 263 264 265 266 267 268 268 269 270 271 271 272 273 274 274 275 276 276 277 277 277 278 278 278 278 279 279 279 280 280
283 280 278 276 275 274 273 273 273 273 273 273 272 271 269 268 268 267 266 265 265 264 264 264 264 264 264 264 263 263 262 261 261 260 260 259 259 260 260 260 260 261 261 261 261 261 262 262 262 262 262 262 262 262 263 263 264 264 265 266 267 268 269 270 271 271 272 273 274 274 275 276 276 277 277 277 278 278 278 279 279 279 280 280 280 281
284 281 279 277 275 274 273 272 271 271 271 270 269 268 268 267 267 266 265 264 264 263 263 263 263 263 263 263 263 262 261 260 260 259 259 259 258 259 259 260 260 261 261 261 261 262 262 262 262 262 262 262 262 263 263 263 264 265 266 267 268 269 270 271 271 272 273 274 274 275 276 276 277 277 277 278 278 278 279 279 279 280 280 280 281 281
285 282 279 277 276 274 273 271 270 269 268 267 266 266 265 265 265 265 264 263 263 262 262 262 262 262 262 262 262 261 261 260 259 259 258 258 258 259 259 259 260 260 261 261 261 261 262 262 262 262 262 262 263 263 264 264 265 266 267 268 269 270 270 271 272 273 273 274 275 275 276 277 277 277 278 278 278 279 279 279 280 280 280 281 281 281
286 282 280 278 276 275 273 272 270 268 266 265 263 263 263 264 264 264 263 263 262 261 261 261 261 261 261 261 261 261 260 260 259 258 258 258 259 259 259 260 260 260 260 261 261 261 261 262 262 262 262 262 263 264 265 265 266 267 268 268 269 270 271 271 272 273 274 274 275 276 276 277 277 278 278 278 279 279 279 280 280 280 281 281 281 282
286 283 280 278 277 275 274 272 270 268 265 263 262 261 261 262 262 262 262 262 261 261 260 260 260 260 260 260 260 260 260 260 259 258 258 259 259 259 260 260 260 261 261 261 261 261 261 261 261 262 262 263 264 265 265 266 267 268 268 269 269 270 271 272 272 273 274 274 275 276 276 277 277 278 278 279 279 279 280 280 280 281 281 281 282 282
287 283 281 278 277 275 274 272 271 268 266 263 261 260 259 260 261 261 261 260 260 260 260 259 259 259 259 259 259 259 260 259 259 258 259 259 259 260 260 261 261 262 262 262 261 261 261 261 261 262 262 263 264 265 266 267 267 268 268 269 270 270 271 272 272 273 274 275 275 276 277 277 278 278 279 279 279 280 280 280 281 281 281 281 282 282
287 283 281 278 277 275 274 273 271 269 266 263 261 259 259 259 259 260 260 260 260 259 259 259 258 258 258 258 258 259 259 259 259 258 259 259 260 261 261 262 263 263 263 263 262 261 261 261 261 262 263 264 265 266 266 267 268 268 268 269 270 270 271 272 272 273 274 275 275 276 277 277 278 278 279 279 280 280 280 281 281 281 281 282 282 282
287 283 281 279 277 275 274 273 271 270 267 264 261 259 258 258 258 259 259 259 259 259 259 258 258 258 258 258 258 258 258 259 258 258 259 260 261 262 263 263 264 264 264 264 262 261 260 260 261 262 263 264 265 266 267 267 267 268 268 269 269 270 271 272 272 273 274 275 276 276 277 277 278 279 279 279 280 280 281 281 281 281 282 282 282 283
287 283 281 279 277 275 274 273 272 270 268 265 262 260 258 258 258 258 259 259 259 259 259 258 258 258 258 258 258 258 258 258 258 258 259 260 261 263 264 265 266 266 265 264 262 260 259 259 260 262 264 265 266 266 267 267 267 268 268 269 269 270 271 272 273 274 274 275 276 277 277 278 278 279 279 280 280 280 281 281 281 282 282 282 283 284
287 283 281 279 277 276 274 273 272 270 268 265 262 260 258 257 257 258 258 258 258 258 258 258 258 258 258 257 257 257 258 258 258 258 259 260 262 263 265 266 267 267 266 264 262 260 258 258 259 261 263 265 266 266 267 267 267 268 268 269 269 270 271 272 273 274 275 275 276 277 277 278 278 279 279 280 280 281 281 281 282 282 283 283 284 284
287 284 281 279 278 276 274 273 272 270 268 265 263 260 258 257 257 257 257 258 258 258 258 258 258 258 257 257 257 257 258 258 258 258 259 261 262 264 266 267 267 267 265 263 261 259 258 258 259 260 262 264 265 266 267 267 267 268 268 269 269 270 271 272 273 274 275 275 276 277 277 278 278 279 279 280 280 281 281 282 282 283 283 284 285 285
287 284 281 280 278 276 274 273 271 270 268 266 263 261 259 257 257 257 257 257 257 257 257 257 257 257 257 257 257 257 257 258 258 259 259 261 263 264 266 267 267 266 265 263 261 259 259 259 259 261 262 263 264 265 266 266 267 267 268 268 269 270 271 272 273 274 274 275 276 277 277 278 278 279 279 280 280 281 281 282 283 283 284 285 285 286
288 285 282 280 278 276 275 273 271 270 268 266 264 261 259 257 257 256 257 257 257 257 257 257 257 257 257 257 257 257 257 258 258 259 260 261 263 265 266 267 266 265 264 262 260 260 259 259 260 261 262 263 264 264 265 265 266 267 267 268 269 270 271 271 272 273 274 275 276 276 277 277 278 279 279 279 280 281 281 282 283 284 284 285 286 287
288 285 283 281 279 277 275 273 271 269 268 266 264 262 260 258 257 256 256 256 256 256 256 256 256 257 257 257 257 257 257 257 258 259 260 262 263 265 266 266 266 264 263 262 261 260 260 260 261 261 262 263 263 264 264 265 265 266 267 268 269 270 271 271 272 273 274 275 275 276 277 277 278 278 279 279 280 280 281 282 283 284 285 286 287 288
288 285 283 282 280 278 276 273 271 269 268 266 264 262 260 258 257 256 256 256 256 256 256 256 256 256 256 257 257 257 257 257 258 259 260 261 263 265 266 266 265 264 263 262 261 260 261 261 261 262 262 262 263 263 264 264 265 266 267 268 269 270 271 272 272 273 274 275 275 276 276 277 277 278 278 279 279 280 281 282 283 284 285 286 287 289
287 285 284 282 280 279 276 274 272 270 268 266 264 262 260 258 257 256 256 256 256 256 256 256 256 256 256 256 257 257 257 258 258 259 260 261 263 264 265 265 265 263 262 262 261 261 261 262 262 262 262 263 263 263 264 264 265 266 266 267 269 270 271 272 273 273 274 275 275 276 276 277 277 278 278 279 279 280 281 282 283 284 286 287 288 289
287 285 284 282 280 279 277 274 272 270 268 266 264 263 261 259 257 256 256 256 256 256 256 256 256 256 256 256 257 257 257 258 258 259 260 261 263 264 265 265 264 263 262 262 262 262 262 262 262 262 262 263 263 263 264 265 265 266 266 267 268 270 271 272 273 273 274 274 275 276 276 276 277 278 278 279 280 281 282 283 284 285 286 287 288 289
287 285 284 282 281 279 277 274 272 270 268 266 264 263 261 259 258 256 256 255 256 256 256 255 256 256 256 256 257 257 257 258 258 259 260 261 262 263 264 264 264 263 263 262 262 262 262 263 263 263 263 263 264 264 264 265 266 266 267 268 268 269 271 272 273 273 274 274 275 275 276 276 277 277 278 279 280 281 282 283 285 286 287 288 289 290
287 285 284 282 281 279 277 275 272 270 268 266 264 263 261 260 258 257 256 255 255 255 255 255 256 256 256 256 257 257 258 258 258 259 260 261 262 263 264 264 263 263 263 262 262 263 263 263 263 264 264 264 264 265 265 265 266 267 268 268 269 270 270 271 272 273 274 274 275 275 276 276 277 278 279 280 281 282 283 285 286 287 288 289 290 291
287 285 284 283 281 280 278 275 273 270 268 266 264 263 261 260 258 257 256 255 255 255 255 255 255 256 256 256 257 257 258 258 259 259 260 261 262 263 263 263 263 263 263 263 263 263 263 264 264 264 265 265 265 265 266 266 267 267 268 269 269 270 270 271 272 273 274 274 275 275 276 276 277 278 279 280 281 283 284 285 287 288 289 290 291 291
287 285 284 283 281 280 278 275 273 270 268 266 264 263 261 260 259 257 256 255 255 255 255 255 255 255 256 257 257 257 258 258 259 259 260 261 262 263 263 263 263 263 263 263 263 264 264 264 265 265 265 266 266 266 266 267 267 268 269 269 270 271 271 271 272 273 273 274 275 276 276 277 278 279 280 281 282 284 285 286 288 289 290 291 291 292
286 285 284 283 282 280 278 276 273 271 268 266 264 263 261 260 259 258 256 256 255 255 255 255 255 255 256 256 257 257 258 258 259 259 260 261 262 263 263 264 264 264 264 264 264 264 265 265 265 265 266 266 267 267 267 268 268 268 269 270 271 271 272 272 272 273 273 274 275 276 277 277 278 279 281 282 283 285 286 288 289 290 291 291 292 292
286 285 284 283 282 280 278 276 273 271 268 266 265 263 261 260 259 258 257 256 255 255 255 255 255 256 256 256 257 257 258 258 259 259 260 261 262 263 264 264 264 265 264 264 264 265 265 266 266 266 266 267 267 268 268 269 269 269 270 270 271 272 272 273 273 274 274 275 276 276 277 278 279 281 282 283 285 286 287 289 290 291 291 292 292 292
286 285 284 283 282 280 278 276 274 271 269 267 265 263 262 260 259 258 257 256 255 255 255 255 255 255 256 256 257 257 258 258 259 259 260 261 262 263 264 265 265 265 265 265 265 265 266 266 267 267 267 268 268 268 269 269 270 270 270 271 271 272 272 273 274 274 275 276 277 278 279 280 281 282 283 285 286 287 288 290 291 291 292 292 292 292
285 284 283 282 281 280 278 276 273 271 269 267 265 263 262 260 259 258 257 256 255 255 254 254 255 255 255 256 257 257 258 258 259 259 260 261 262 263 264 265 265 266 266 266 266 266 267 267 267 268 268 269 269 269 269 270 270 271 271 272 272 273 273 274 275 275 276 277 278 279 280 281 283 284 285 286 287 288 290 291 291 292 292 292 292 292
284 283 282 282 280 279 277 275 273 271 269 267 265 264 262 261 259 258 257 256 255 255 254 254 254 255 255 256 256 257 257 258 259 260 260 261 262 263 264 265 265 266 266 266 267 267 267 268 268 269 269 269 270 270 270 270 271 272 272 273 273 274 274 275 276 277 278 279 280 281 282 283 284 285 286 287 288 289 290 291 292 292 292 292 292 291
283 282 282 281 280 278 276 274 272 270 269 267 266 264 263 261 260 258 257 256 255 255 254 254 254 255 255 255 256 257 257 258 259 259 260 261 262 263 264 265 265 266 266 267 267 267 268 268 269 269 270 270 271 271 271 271 272 272 273 274 274 275 276 276 277 278 279 280 281 282 284 285 286 287 288 289 290 290 291 292 292 292 292 292 291 290
282 282 281 280 279 278 275 273 271 270 268 267 266 265 263 262 260 259 258 257 256 255 255 254 254 255 255 255 256 256 257 258 258 259 260 261 262 263 264 265 266 266 267 267 267 268 268 268 269 269 270 271 271 272 272 272 273 273 274 275 275 276 277 278 279 280 281 282 283 284 285 286 287 288 289 290 291 291 292 292 292 292 292 291 290 289
Height
5641 5639 5639 5638 5638 5637 5636 5636 5636 5636 5636 5635 5636 5636 5636 5636 5636 5635 5635 5635 5635 5634 5634 5634 5633 5633 5633 5633 5633 5633 5633 5633 5633 5633 5633 5634 5634 5634 5634 5635 5635 5635 5636 5636 5636 5637 5637 5637 5638 5638 5638 5638 5638 5638 5639 5639 5639 5639 5639 5640 5640 5640 5640 5641 5641 5641 5641 5642 5642 5642 5642 5642 5643 5643 5643 5643 5643 5643 5643 5643 5643 5643 5644 5644 5644 5644
5636 5635 5634 5634 5633 5633 5632 5631 5631 5632 5631 5630 5630 5631 5631 5631 5630 5630 5630 5630 5630 5629 5629 5629 5628 5628 5628 5628 5628 5628 5628 5628 5629 5629 5629 5629 5629 5629 5630 5630 5631 5631 5631 5631 5632 5632 5633 5633 5633 5634 5634 5634 5634 5635 5635 5635 5635 5635 5635 5636 5636 5636 5636 5637 5637 5637 5638 5638 5638 5638 5639 5639 5639 5639 5639 5639 5639 5639 5640 5640 5640 5640 5640 5640 5640 5640
5632 5631 5630 5629 5629 5628 5627 5626 5626 5627 5626 5626 5626 5626 5626 5626 5625 5625 5625 5625 5625 5625 5624 5624 5624 5623 5623 5623 5623 5623 5624 5624 5624 5624 5624 5624 5625 5625 5625 5626 5626 5626 5627 5627 5628 5628 5628 5629 5629 5630 5630 5630 5630 5631 5631 5631 5631 5631 5631 5631 5632 5632 5632 5633 5633 5634 5634 5634 5634 5635 5635 5635 5635 5635 5635 5636 5636 5636 5636 5636 5636 5636 5636 5637 5637 5637
5627 5626 5625 5625 5624 5624 5623 5622 5622 5622 5621 5621 5621 5621 5621 5621 5620 5620 5620 5620 5620 5620 5619 5619 5619 5619 5618 5618 5619 5619 5619 5619 5619 5620 5620 5620 5620 5621 5621 5621 5621 5622 5622 5623 5623 5624 5624 5625 5625 5626 5626 5626 5626 5626 5627 5627 5627 5627 5627 5628 5628 5628 5629 5629 5629 5630 5630 5630 5631 5631 5631 5631 5631 5631 5631 5632 5632 5632 5632 5632 5632 5633 5633 5633 5633 5633
5622 5622 5621 5620 5620 5619 5618 5617 5617 5617 5616 5616 5616 5616 5616 5616 5616 5615 5615 5615 5615 5615 5615 5615 5614 5614 5614 5614 5614 5614 5614 5614 5615 5615 5615 5616 5616 5616 5616 5617 5617 5617 5618 5618 5619 5619 5620 5620 5621 5621 5621 5622 5622 5622 5623 5623 5623 5623 5623 5624 5624 5624 5625 5625 5625 5626 5626 5626 5626 5627 5627 5627 5627 5627 5628 5628 5628 5628 5628 5629 5629 5629 5629 5629 5630 5630
5618 5617 5616 5616 5615 5614 5613 5613 5612 5612 5612 5612 5611 5611 5611 5611 5611 5611 5610 5610 5610 5610 5610 5610 5610 5609 5609 5609 5609 5609 5610 5610 5610 5610 5611 5611 5611 5611 5612 5612 5613 5613 5613 5614 5614 5615 5615 5616 5616 5617 5617 5618 5618 5618 5619 5619 5619 5619 5619 5620 5620 5620 5621 5621 5621 5622 5622 5622 5622 5623 5623 5623 5623 5624 5624 5624 5624 5624 5625 5625 5625 5625 5625 5626 5626 5626
5613 5612 5611 5611 5610 5609 5609 5608 5608 5608 5608 5607 5607 5606 5606 5606 5606 5606 5606 5605 5605 5605 5605 5605 5605 5605 5605 5605 5605 5605 5605 5606 5606 5606 5606 5606 5607 5607 5607 5608 5608 5609 5609 5610 5610 5611 5611 5611 5612 5613 5613 5613 5614 5614 5614 5615 5615 5615 5615 5616 5616 5616 5616 5617 5617 5618 5618 5618 5619 5619 5619 5619 5619 5620 5620 5620 5620 5621 5621 5621 5621 5621 5621 5621 5622 5622
5609 5608 5607 5607 5606 5605 5605 5604 5603 5603 5603 5603 5602 5602 5602 5602 5602 5601 5601 5601 5601 5600 5600 5600 5600 5600 5600 5600 5600 5601 5601 5601 5601 5601 5602 5602 5602 5603 5603 5603 5604 5604 5605 5605 5606 5606 5607 5607 5608 5608 5609 5609 5610 5610 5610 5611 5611 5611 5611 5611 5612 5612 5613 5613 5613 5614 5614 5614 5614 5615 5615 5615 5616 5616 5616 5616 5616 5616 5616 5617 5617 5617 5617 5617 5618 5618
5605 5604 5603 5603 5602 5601 5600 5599 5599 5599 5599 5598 5598 5598 5598 5598 5597 5597 5597 5596 5596 5596 5596 5596 5595 5595 5595 5596 5596 5596 5596 5596 5597 5597 5597 5598 5598 5598 5599 5599 5599 5600 5600 5601 5601 5602 5602 5603 5603 5604 5605 5605 5605 5606 5606 5606 5606 5607 5607 5607 5608 5608 5608 5609 5609 5609 5610 5610 5610 5611 5611 5611 5611 5611 5612 5612 5612 5612 5612 5612 5613 5613 5613 5613 5613 5614
5601 5600 5599 5598 5598 5597 5596 5595 5594 5594 5594 5594 5593 5593 5593 5593 5593 5593 5593 5592 5592 5591 5592 5591 5591 5591 5591 5591 5591 5591 5592 5592 5592 5593 5593 5593 5594 5594 5594 5595 5595 5596 5596 5596 5597 5597 5598 5599 5599 5600 5600 5601 5601 5601 5602 5602 5602 5603 5603 5603 5604 5604 5604 5605 5605 5605 5606 5606 5606 5606 5607 5607 5607 5607 5607 5608 5608 5608 5608 5608 5608 5608 5609 5609 5609 5609
5597 5596 5596 5594 5593 5593 5592 5591 5590 5590 5590 5589 5589 5588 5589 5589 5589 5588 5588 5588 5587 5588 5587 5587 5587 5587 5586 5586 5587 5587 5587 5588 5588 5588 5589 5589 5589 5590 5590 5590 5591 5591 5592 5592 5593 5593 5594 5594 5595 5595 5596 5596 5596 5597 5597 5598 5598 5599 5599 5599 5600 5600 5600 5600 5601 5601 5601 5601 5602 5602 5602 5603 5603 5603 5603 5603 5604 5604 5604 5604 5604 5604 5604 5604 5605 5605
5593 5592 5591 5590 5589 5589 5588 5587 5586 5586 5586 5585 5585 5584 5584 5584 5585 5584 5584 5583 5583 5584 5583 5583 5582 5582 5582 5582 5582 5583 5583 5583 5583 5584 5584 5585 5585 5585 5586 5586 5586 5587 5587 5588 5589 5589 5590 5590 5591 5591 5591 5592 5592 5593 5593 5594 5594 5594 5595 5595 5595 5596 5596 5596 5596 5596 5597 5597 5597 5598 5598 5598 5599 5599 5599 5599 5599 5599 5599 5600 5600 5600 5600 5600 5600 5600
5589 5588 5587 5586 5585 5584 5584 5583 5582 5582 5581 5581 5581 5580 5580 5580 5580 5580 5580 5579 5579 5579 5579 5579 5578 5578 5578 5578 5578 5579 5579 5579 5579 5580 5580 5580 5581 5581 5581 5582 5582 5583 5583 5584 5584 5585 5585 5586 5586 5586 5587 5587 5588 5588 5589 5589 5590 5590 5591 5591 5591 5591 5591 5591 5592 5592 5592 5593 5593 5593 5594 5594 5594 5594 5595 5595 5595 5595 5595 5595 5595 5595 5595 5595 5596 5596
5585 5584 5583 5582 5581 5580 5579 5579 5578 5577 5577 5577 5576 5576 5576 5576 5576 5576 5576 5575 5575 5575 5575 5575 5574 5574 5574 5574 5574 5574 5575 5575 5575 5576 5576 5576 5576 5577 5577 5577 5578 5579 5579 5580 5580 5581 5581 5581 5582 5582 5583 5583 5583 5584 5585 5585 5585 5586 5586 5586 5586 5587 5587 5587 5587 5588 5588 5589 5589 5589 5589 5590 5590 5590 5590 5590 5590 5591 5591 5591 5591 5591 5591 5591 5591 5591
5581 5580 5579 5577 5576 5576 5575 5575 5574 5573 5573 5573 5573 5572 5572 5571 5571 5571 5571 5571 5571 5571 5571 5570 5570 5570 5569 5569 5570 5570 5571 5571 5571 5571 5572 5572 5572 5572 5573 5573 5574 5574 5575 5576 5576 5576 5577 5577 5577 5578 5578 5579 5579 5580 5580 5581 5581 5581 5582 5582 5582 5582 5582 5583 5583 5583 5584 5584 5584 5585 5585 5585 5585 5585 5586 5586 5586 5586 5586 5586 5586 5586 5586 5586 5586 5586
5577 5576 5574 5573 5572 5571 5571 5570 5570 5569 5569 5569 5568 5568 5568 5567 5567 5567 5567 5566 5566 5566 5566 5566 5566 5565 5565 5565 5566 5566 5566 5566 5567 5567 5568 5568 5568 5568 5569 5569 5570 5570 5571 5571 5571 5572 5573 5573 5573 5573 5574 5574 5575 5575 5576 5576 5577 5577 5577 5577 5578 5578 5578 5578 5579 5579 5579 5580 5580 5580 5580 5580 5581 5581 5581 5581 5581 5581 5581 5581 5581 5581 5581 5581 5581 5581
5573 5571 5570 5569 5568 5567 5566 5566 5566 5565 5565 5564 5564 5564 5563 5563 5563 5563 5562 5562 5562 5562 5562 5561 5561 5561 5561 5561 5561 5562 5562 5562 5563 5563 5564 5564 5564 5564 5565 5565 5566 5566 5567 5567 5567 5568 5569 5569 5569 5569 5570 5570 5570 5571 5571 5572 5572 5573 5573 5573 5573 5573 5574 5574 5574 5574 5575 5575 5575 5575 5576 5576 5576 5576 5576 5576 5576 5576 5576 5576 5576 5576 5576 5576 5576 5577
5569 5567 5566 5564 5563 5562 5562 5562 5561 5561 5561 5560 5560 5559 5559 5559 5559 5558 5558 5558 5558 5558 5557 5557 5557 5557 5557 5556 5556 5557 5558 5559 5559 5559 5560 5560 5560 5560 5561 5561 5562 5562 5563 5563 5564 5564 5564 5565 5565 5565 5565 5566 5566 5566 5567 5567 5568 5568 5568 5568 5569 5569 5569 5569 5570 5570 5570 5570 5571 5571 5571 5571 5571 5571 5571 5571 5571 5572 5572 5572 5572 5572 5572 5572 5572 5572
5564 5562 5561 5559 5558 5557 5557 5557 5556 5556 5556 5556 5555 5555 5555 5554 5554 5554 5554 5554 5554 5554 5553 5553 5553 5553 5553 5552 5552 5553 5554 5554 5555 5556 5556 5556 5556 5556 5557 5557 5558 5558 5559 5559 5560 5560 5560 5561 5561 5561 5561 5561 5561 5562 5562 5563 5563 5564 5564 5564 5564 5564 5564 5565 5565 5565 5565 5566 5566 5566 5566 5566 5566 5566 5566 5567 5567 5567 5567 5567 5567 5567 5567 5567 5567 5567
5558 5557 5556 5554 5553 5552 5552 5552 5551 5551 5551 5550 5550 5550 5550 5550 5550 5550 5550 5550 5550 5550 5549 5549 5549 5549 5549 5549 5549 5549 5549 5550 5551 5552 5552 5552 5552 5552 5553 5553 5554 5555 5555 5555 5556 5556 5556 5556 5556 5556 5557 5557 5557 5558 5558 5558 5559 5559 5559 5559 5559 5560 5560 5560 5560 5561 5561 5561 5561 5561 5561 5561 5561 5561 5562 5562 5562 5562 5562 5562 5562 5562 5562 5562 5562 5562
5551 5551 5550 5549 5548 5547 5547 5546 5546 5546 5545 5545 5545 5545 5545 5545 5545 5545 5545 5546 5545 5545 5545 5545 5545 5545 5545 5545 5545 5545 5545 5546 5547 5548 5548 5549 5549 5548 5549 5549 5550 5551 5551 5551 5551 5552 5552 5552 5552 5552 5552 5552 5553 5553 5554 5554 5554 5554 5554 5555 5555 5555 5555 5555 5556 5556 5556 5556 5556 5556 5556 5556 5556 5557 5557 5557 5557 5557 5557 5557 5557 5557 5557 5557 5557 5557
5545 5544 5543 5542 5542 5541 5541 5541 5541 5540 5540 5540 5540 5540 5540 5541 5541 5541 5541 5541 5541 5541 5541 5541 5541 5541 5541 5541 5540 5540 5541 5541 5542 5544 5544 5545 5545 5545 5545 5545 5546 5547 5547 5547 5548 5548 5548 5548 5548 5548 5548 5548 5548 5549 5549 5549 5550 5550 5550 5550 5550 5550 5551 5551 5551 5551 5551 5551 5551 5551 5551 5551 5552 5552 5552 5552 5552 5552 5552 5552 5552 5552 5552 5552 5552 5552
5538 5537 5536 5536 5536 5535 5535 5535 5534 5534 5534 5534 5534 5535 5535 5536 5536 5536 5536 5536 5536 5536 5536 5536 5536 5536 5536 5536 5536 5536 5536 5537 5538 5539 5540 5541 5541 5541 5541 5541 5542 5543 5543 5543 5544 5544 5544 5544 5544 5544 5544 5544 5544 5544 5544 5545 5545 5545 5545 5545 5546 5546 5546 5546 5546 5546 5546 5546 5546 5546 5547 5547 5547 5547 5547 5547 5547 5547 5547 5547 5547 5547 5547 5547 5547 5546
5531 5531 5530 5529 5529 5528 5528 5528 5528 5528 5528 5528 5529 5529 5529 5530 5531 5531 5531 5531 5531 5531 5532 5532 5532 5532 5532 5532 5532 5532 5532 5533 5534 5535 5536 5536 5537 5537 5537 5537 5538 5539 5539 5539 5540 5540 5540 5540 5539 5539 5539 5539 5539 5539 5540 5540 5540 5541 5541 5541 5541 5541 5541 5541 5541 5541 5541 5541 5542 5542 5542 5542 5542 5542 5542 5542 5542 5542 5542 5542 5542 5542 5542 5541 5541 5541
5526 5525 5524 5523 5522 5522 5522 5522 5522 5522 5522 5522 5523 5523 5524 5525 5526 5526 5526 5526 5526 5526 5527 5528 5528 5528 5527 5528 5528 5528 5528 5529 5530 5531 5531 5532 5533 5533 5534 5534 5534 5535 5535 5535 5536 5536 5535 5535 5535 5535 5535 5535 5535 5535 5535 5535 5536 5536 5536 5536 5536 5536 5537 5537 5537 5537 5537 5537 5537 5537 5537 5537 5537 5537 5537 5537 5537 5537 5537 5537 5537 5536 5536 5536 5536 5536
5520 5518 5517 5517 5516 5516 5516 5515 5515 5516 5516 5516 5517 5518 5519 5520 5521 5521 5521 5521 5521 5522 5522 5523 5523 5523 5523 5523 5523 5523 5524 5524 5525 5526 5527 5528 5528 5529 5529 5529 5530 5531 5531 5531 5531 5531 5531 5531 5531 5530 5530 5530 5530 5530 5531 5531 5531 5531 5531 5532 5532 5532 5532 5532 5532 5532 5532 5532 5532 5532 5532 5532 5532 5532 5532 5532 5532 5532 5532 5532 5531 5531 5531 5531 5531 5531
5514 5513 5511 5511 5510 5510 5509 5509 5509 5509 5510 5511 5511 5513 5514 5515 5516 5516 5516 5516 5517 5517 5517 5518 5518 5519 5519 5519 5519 5519 5519 5520 5520 5521 5522 5523 5524 5524 5525 5525 5526 5526 5527 5527 5527 5527 5527 5526 5526 5526 5526 5526 5526 5526 5526 5526 5526 5527 5527 5527 5527 5527 5527 5527 5527 5528 5528 5528 5528 5528 5528 5528 5528 5528 5528 5527 5527 5527 5527 5527 5526 5526 5526 5526 5526 5526
5509 5507 5506 5505 5505 5504 5503 5503 5503 5503 5504 5505 5506 5507 5508 5509 5510 5510 5511 5511 5512 5512 5512 5513 5514 5514 5514 5515 5515 5515 5515 5515 5516 5516 5518 5519 5519 5520 5520 5521 5521 5521 5522 5523 5523 5523 5522 5522 5521 5521 5521 5521 5521 5521 5521 5522 5522 5522 5522 5523 5523 5523 5523 5523 5523 5523 5523 5523 5523 5523 5523 5523 5523 5523 5523 5523 5522 5522 5522 5521 5521 5521 5521 5521 5521 5521
5503 5502 5501 5500 5499 5498 5498 5497 5497 5498 5498 5499 5500 5501 5502 5503 5504 5505 5505 5506 5507 5507 5507 5508 5509 5509 5510 5510 5511 5511 5511 5511 5511 5512 5513 5514 5514 5515 5516 5516 5516 5517 5518 5518 5519 5519 5518 5517 5517 5517 5517 5517 5517 5517 5517 5517 5518 5518 5518 5518 5518 5518 5518 5518 5518 5518 5519 5519 5519 5518 5518 5518 5518 5518 5518 5518 5517 5517 5517 5516 5516 5516 5516 5516 5516 5516
5498 5497 5496 5495 5494 5493 5493 5492 5492 5493 5493 5493 5494 5495 5496 5497 5498 5499 5500 5501 5502 5502 5502 5503 5504 5504 5505 5506 5506 5506 5506 5506 5506 5507 5509 5509 5509 5510 5511 5511 5512 5512 5513 5513 5514 5514 5514 5514 5513 5513 5513 5513 5513 5513 5513 5513 5513 5514 5514 5514 5514 5514 5514 5514 5514 5514 5514 5514 5514 5514 5514 5514 5513 5513 5513 5513 5512 5512 5512 5511 5511 5511 5511 5511 5511 5510
5492 5491 5490 5489 5489 5488 5488 5487 5487 5488 5488 5488 5489 5490 5491 5491 5492 5493 5494 5496 5496 5497 5498 5498 5499 5500 5500 5501 5501 5502 5501 5501 5502 5503 5504 5504 5505 5506 5507 5507 5507 5508 5508 5509 5509 5509 5510 5510 5510 5509 5509 5509 5509 5509 5509 5509 5509 5509 5510 5510 5510 5509 5509 5509 5509 5509 5509 5509 5509 5509 5509 5509 5509 5509 5508 5508 5508 5507 5506 5506 5506 5505 5505 5505 5505 5505
5487 5486 5485 5484 5484 5483 5483 5483 5483 5483 5483 5483 5484 5484 5485 5486 5487 5488 5489 5490 5491 5492 5493 5493 5494 5495 5495 5496 5496 5497 5497 5497 5497 5498 5499 5500 5501 5501 5502 5502 5502 5503 5503 5504 5504 5505 5506 5506 5506 5506 5505 5505 5505 5505 5505 5505 5505 5505 5505 5505 5505 5505 5505 5505 5505 5505 5505 5505 5505 5505 5504 5504 5504 5504 5503 5503 5503 5502 5501 5501 5500 5500 5500 5500 5500 5499
5482 5481 5480 5479 5479 5478 5478 5478 5478 5478 5478 5478 5478 5479 5480 5481 5482 5483 5484 5485 5486 5487 5488 5488 5489 5490 5491 5491 5491 5492 5492 5492 5492 5493 5495 5495 5496 5497 5497 5497 5497 5498 5498 5499 5499 5500 5501 5501 5502 5502 5502 5501 5501 5500 5500 5500 5500 5501 5501 5501 5501 5501 5500 5500 5500 5500 5500 5500 5500 5500 5500 5499 5499 5499 5499 5498 5498 5497 5496 5496 5495 5495 5494 5494 5494 5494
5477 5476 5475 5474 5474 5473 5473 5473 5472 5472 5472 5473 5473 5474 5475 5476 5477 5478 5479 5480 5481 5481 5482 5483 5484 5485 5486 5486 5487 5487 5488 5487 5488 5489 5490 5491 5491 5492 5493 5493 5493 5493 5493 5494 5495 5496 5496 5497 5498 5498 5498 5498 5497 5496 5496 5496 5496 5496 5496 5496 5496 5496 5496 5496 5496 5496 5496 5496 5496 5495 5495 5495 5495 5494 5494 5493 5493 5492 5491 5491 5490 5489 5489 5488 5488 5488
5472 5471 5470 5469 5469 5468 5468 5467 5467 5467 5467 5468 5468 5469 5470 5471 5472 5473 5474 5474 5475 5476 5477 5478 5479 5480 5481 5481 5482 5482 5483 5483 5483 5484 5485 5486 5486 5487 5488 5488 5489 5489 5489 5489 5490 5491 5491 5492 5493 5493 5494 5494 5494 5493 5492 5492 5492 5492 5492 5492 5492 5491 5491 5491 5491 5491 5491 5491 5491 5491 5490 5490 5490 5490 5489 5489 5488 5487 5487 5486 5485 5484 5483 5483 5482 5482
5467 5466 5465 5464 5464 5463 5463 5462 5462 5462 5462 5462 5463 5464 5465 5466 5466 5467 5468 5469 5470 5471 5472 5473 5474 5475 5476 5476 5477 5477 5478 5478 5478 5479 5480 5481 5482 5483 5483 5484 5484 5484 5484 5485 5486 5486 5487 5488 5488 5489 5489 5489 5490 5489 5489 5488 5488 5488 5487 5487 5487 5487 5487 5487 5487 5487 5487 5486 5486 5486 5486 5486 5485 5485 5485 5484 5483 5483 5482 5481 5480 5479 5478 5477 5477 5476
5461 5460 5460 5459 5458 5458 5457 5457 5457 5457 5457 5457 5458 5458 5459 5460 5461 5462 5463 5464 5465 5466 5467 5468 5469 5470 5470 5471 5472 5472 5473 5473 5474 5474 5475 5476 5477 5478 5479 5479 5480 5480 5480 5480 5481 5482 5482 5483 5484 5484 5484 5485 5485 5485 5485 5485 5484 5484 5483 5483 5483 5482 5482 5482 5482 5482 5482 5482 5482 5481 5481 5481 5481 5480 5480 5480 5479 5478 5477 5476 5476 5474 5473 5472 5471 5471
5456 5455 5454 5454 5453 5453 5452 5452 5452 5452 5452 5452 5453 5453 5454 5455 5456 5457 5458 5459 5460 5461 5462 5463 5464 5465 5465 5466 5467 5467 5468 5468 5469 5470 5470 5471 5472 5473 5474 5475 5475 5475 5476 5476 5476 5477 5478 5478 5479 5480 5480 5480 5481 5481 5481 5481 5480 5480 5479 5479 5478 5478 5478 5477 5477 5477 5477 5477 5477 5477 5476 5476 5476 5476 5475 5475 5474 5474 5473 5472 5471 5470 5468 5467 5466 5465
5452 5451 5450 5449 5448 5448 5447 5447 5447 5447 5447 5447 5448 5448 5449 5450 5451 5452 5453 5454 5455 5456 5457 5458 5459 5460 5460 5461 5462 5462 5463 5463 5464 5465 5466 5466 5467 5468 5469 5470 5470 5471 5471 5471 5472 5473 5473 5474 5474 5475 5475 5476 5476 5476 5476 5476 5476 5475 5475 5474 5474 5474 5473 5473 5472 5472 5472 5472 5472 5472 5472 5471 5471 5471 5470 5470 5470 5469 5468 5467 5466 5465 5463 5462 5461 5460
5447 5446 5445 5444 5443 5443 5442 5442 5442 5442 5442 5442 5442 5443 5444 5445 5446 5446 5448 5449 5450 5451 5452 5453 5454 5455 5456 5456 5457 5457 5458 5458 5459 5460 5461 5462 5463 5463 5464 5465 5466 5466 5466 5467 5467 5468 5469 5469 5469 5470 5470 5471 5471 5471 5471 5471 5471 5470 5470 5470 5470 5469 5469 5468 5467 5467 5467 5467 5467 5467 5467 5466 5466 5466 5465 5465 5464 5464 5463 5462 5461 5460 5458 5457 5455 5454
5442 5441 5440 5439 5439 5438 5437 5437 5437 5437 5437 5437 5438 5438 5439 5440 5441 5442 5443 5444 5445 5446 5447 5448 5449 5450 5451 5451 5452 5452 5453 5454 5454 5455 5456 5457 5458 5459 5459 5460 5461 5461 5462 5462 5463 5464 5464 5464 5465 5465 5465 5466 5466 5466 5466 5466 5466 5465 5465 5465 5465 5465 5465 5464 5463 5462 5462 5462 5462 5462 5462 5461 5461 5461 5461 5460 5459 5458 5457 5456 5455 5454 5452 5451 5450 5448
5437 5436 5435 5435 5434 5433 5433 5432 5432 5432 5432 5432 5433 5434 5434 5435 5436 5437 5438 5439 5440 5441 5442 5443 5444 5445 5446 5447 5447 5448 5448 5449 5450 5450 5451 5452 5453 5454 5455 5455 5456 5456 5457 5458 5459 5459 5459 5460 5460 5460 5460 5461 5461 5461 5461 5461 5461 5460 5460 5460 5460 5460 5460 5459 5458 5457 5457 5457 5457 5457 5456 5456 5456 5456 5456 5455 5454 5453 5452 5451 5449 5448 5446 5445 5444 5442
5432 5431 5430 5430 5429 5428 5428 5428 5427 5427 5427 5428 5428 5429 5429 5430 5431 5432 5433 5435 5436 5436 5437 5438 5439 5441 5441 5442 5443 5443 5443 5444 5445 5446 5446 5447 5448 5449 5450 5451 5451 5452 5452 5453 5454 5454 5455 5455 5455 5455 5456 5456 5456 5456 5456 5456 5456 5455 5455 5455 5455 5455 5455 5455 5454 5453 5452 5452 5452 5451 5451 5451 5451 5451 5450 5449 5448 5447 5446 5445 5444 5442 5441 5439 5437 5436
5427 5426 5426 5425 5424 5424 5423 5423 5423 5423 5423 5423 5424 5424 5425 5426 5426 5427 5428 5430 5431 5432 5433 5434 5435 5436 5437 5437 5438 5439 5439 5439 5440 5441 5441 5442 5443 5444 5445 5446 5446 5447 5448 5448 5449 5450 5450 5450 5450 5450 5451 5451 5451 5451 5451 5451 5450 5450 5450 5450 5449 5449 5449 5449 5449 5448 5447 5447 5447 5446 5446 5445 5445 5445 5445 5444 5443 5442 5441 5440 5438 5436 5435 5433 5431 5429
5422 5421 5421 5420 5420 5419 5419 5419 5418 5418 5418 5419 5419 5420 5420 5421 5421 5423 5424 5425 5426 5427 5428 5429 5430 5431 5432 5432 5433 5434 5435 5435 5436 5436 5436 5437 5438 5439 5440 5441 5441 5442 5443 5443 5444 5445 5445 5445 5446 5446 5446 5446 5446 5446 5446 5445 5445 5445 5445 5445 5444 5444 5444 5444 5443 5443 5442 5442 5442 5441 5441 5440 5440 5440 5439 5439 5438 5437 5436 5434 5432 5431 5429 5427 5425 5423
5417 5417 5416 5416 5415 5415 5414 5414 5414 5414 5414 5414 5415 5415 5416 5416 5417 5418 5419 5420 5421 5422 5423 5424 5425 5426 5427 5427 5428 5429 5430 5431 5431 5431 5432 5432 5433 5434 5435 5436 5436 5437 5438 5438 5439 5440 5440 5441 5441 5441 5441 5441 5441 5441 5440 5440 5440 5440 5440 5439 5439 5438 5438 5438 5438 5437 5437 5437 5436 5436 5435 5435 5434 5434 5434 5433 5433 5432 5430 5428 5426 5424 5422 5421 5419 5416
5413 5412 5411 5411 5411 5410 5410 5410 5409 5409 5410 5410 5410 5411 5411 5412 5412 5413 5414 5416 5416 5418 5419 5420 5421 5421 5422 5423 5424 5425 5425 5426 5426 5427 5428 5428 5428 5429 5430 5431 5431 5432 5432 5433 5434 5435 5435 5435 5436 5436 5436 5436 5436 5436 5436 5435 5434 5434 5434 5434 5434 5433 5433 5433 5432 5432 5431 5431 5431 5430 5430 5429 5429 5428 5428 5428 5427 5426 5425 5423 5421 5418 5416 5414 5412 5410
5408 5408 5407 5406 5406 5406 5405 5405 5405 5405 5405 5406 5406 5406 5407 5407 5408 5409 5410 5411 5412 5413 5414 5415 5416 5417 5417 5418 5419 5420 5421 5421 5422 5422 5423 5423 5424 5425 5425 5426 5426 5427 5428 5428 5429 5430 5430 5430 5431 5431 5431 5431 5431 5430 5430 5430 5430 5429 5429 5428 5428 5428 5427 5427 5427 5426 5426 5426 5425 5425 5424 5423 5423 5422 5422 5421 5421 5420 5419 5417 5415 5412 5410 5408 5406 5404
5404 5403 5403 5402 5402 5401 5401 5401 5401 5401 5401 5401 5402 5402 5402 5403 5404 5405 5405 5406 5407 5409 5409 5410 5411 5412 5413 5414 5415 5416 5416 5417 5417 5418 5419 5419 5419 5420 5420 5421 5421 5422 5423 5423 5424 5425 5425 5426 5426 5426 5426 5426 5425 5425 5426 5425 5425 5424 5423 5423 5423 5422 5422 5422 5422 5421 5421 5420 5419 5419 5418 5417 5417 5416 5416 5415 5415 5414 5413 5411 5409 5407 5404 5401 5399 5397
5399 5399 5398 5398 5397 5397 5397 5397 5397 5397 5397 5397 5397 5398 5398 5399 5399 5400 5401 5402 5403 5404 5405 5406 5407 5408 5408 5409 5410 5411 5412 5412 5413 5413 5414 5414 5415 5415 5416 5416 5417 5417 5418 5419 5420 5420 5421 5421 5421 5421 5421 5420 5420 5420 5420 5420 5420 5419 5418 5418 5417 5417 5416 5416 5416 5416 5415 5415 5414 5413 5413 5412 5411 5410 5409 5408 5408 5407 5407 5406 5403 5401 5398 5396 5393 5391
5395 5394 5394 5393 5393 5393 5393 5393 5393 5393 5393 5393 5394 5394 5394 5395 5395 5396 5397 5398 5399 5400 5401 5401 5402 5403 5404 5405 5406 5406 5407 5408 5408 5409 5409 5410 5411 5411 5411 5412 5412 5413 5413 5414 5415 5415 5416 5416 5416 5416 5416 5415 5415 5415 5415 5415 5415 5414 5413 5413 5412 5412 5411 5411 5411 5411 5410 5409 5408 5408 5407 5406 5405 5404 5403 5402 5401 5400 5400 5399 5398 5395 5392 5390 5387 5386